Simultaneous Nadir Overpasses (SNOs) Predictions

Prediction of SNOs between GOES-16 and NPP Satellite Orbit:

Table of predicted SNOs for the next 14.0 days since TLE Epoch: 4/16/2022
Index Date Time (GOES-16) GOES-16 Lat,Lon NPP Lat,Lon Distance(km) Time Diff (sec)
1 04/16/2022 06:23:35 -0.05, -75.22 -0.11, -74.94 31.73 80
2 04/18/2022 18:26:46 0.05, -75.24 -0.06, -75.71 53.87 80
3 04/19/2022 18:10:40 0.05, -75.24 0.94, -71.17 463.32 80
4 04/21/2022 06:32:27 -0.04, -75.24 0.22, -76.44 136.25 80
5 04/22/2022 06:11:02 -0.04, -75.25 -0.77, -71.90 380.95 80
6 04/23/2022 18:32:57 0.03, -75.27 -0.43, -77.20 221.30 80
7 04/24/2022 18:16:53 0.03, -75.28 0.62, -72.68 296.63 80
8 04/26/2022 06:38:39 -0.02, -75.30 0.59, -77.94 301.25 80
9 04/27/2022 06:17:15 -0.02, -75.31 -0.47, -73.41 217.07 80
10 04/28/2022 18:41:50 0.02, -75.34 -0.73, -78.71 383.70 80
11 04/29/2022 18:23:04 0.02, -75.36 0.27, -74.17 135.23 80
